Time,TemperatureF,DewpointF,PressureIn,WindDirection,WindDirectionDegrees,WindSpeedMPH,WindSpeedGustMPH,Humidity,HourlyPrecipIn,Conditions,Clouds,dailyrainin,SoftwareType,DateUTC
2013-03-27 00:00:00,31.0,18.0,29.98,SE,130,5.0,9.0,58,0.00,,---,0.00,VWS V13.00,2013-03-27 06:00:00,
2013-03-27 00:05:00,30.7,18.1,29.98,SE,130,4.0,9.0,59,0.00,,---,0.00,VWS V13.00,2013-03-27 06:05:00,
2013-03-27 00:10:00,30.5,17.9,29.98,SE,130,4.0,4.0,59,0.00,,---,0.00,VWS V13.00,2013-03-27 06:10:00,
2013-03-27 00:15:00,30.2,18.0,29.98,SE,134,9.0,10.0,60,0.00,,---,0.00,VWS V13.00,2013-03-27 06:15:00,
2013-03-27 00:20:00,30.1,17.9,29.98,SE,142,10.0,11.0,60,0.00,,---,0.00,VWS V13.00,2013-03-27 06:20:00,
2013-03-27 00:25:00,30.0,17.8,29.99,SE,137,10.0,11.0,60,0.00,,---,0.00,VWS V13.00,2013-03-27 06:25:00,
2013-03-27 00:30:00,30.1,17.9,29.99,SE,137,6.0,11.0,60,0.00,,---,0.00,VWS V13.00,2013-03-27 06:30:00,
2013-03-27 00:35:00,29.8,17.6,29.99,SE,137,7.0,11.0,60,0.00,,---,0.00,VWS V13.00,2013-03-27 06:35:00,
2013-03-27 00:40:00,29.5,17.7,29.99,SE,137,7.0,7.0,61,0.00,,---,0.00,VWS V13.00,2013-03-27 06:40:00,
2013-03-27 00:45:00,29.3,17.5,29.99,SE,136,5.0,9.0,61,0.00,,---,0.00,VWS V13.00,2013-03-27 06:45:00,
2013-03-27 00:50:00,29.1,17.7,29.99,SE,136,4.0,9.0,62,0.00,,---,0.00,VWS V13.00,2013-03-27 06:50:00,
2013-03-27 00:55:00,28.8,17.4,29.99,SE,136,4.0,9.0,62,0.00,,---,0.00,VWS V13.00,2013-03-27 06:55:00,
2013-03-27 01:00:00,28.7,17.7,29.99,SE,134,4.0,9.0,63,0.00,,---,0.00,VWS V13.00,2013-03-27 07:00:00,
2013-03-27 01:05:00,28.4,17.8,29.99,SE,134,5.0,9.0,64,0.00,,---,0.00,VWS V13.00,2013-03-27 07:05:00,
2013-03-27 01:10:00,27.8,17.6,29.98,SE,134,5.0,6.0,65,0.00,,---,0.00,VWS V13.00,2013-03-27 07:10:00,
2013-03-27 01:15:00,27.2,17.7,29.98,SE,134,6.0,6.0,67,0.00,,---,0.00,VWS V13.00,2013-03-27 07:15:00,
2013-03-27 01:20:00,26.8,17.7,29.98,SE,134,7.0,7.0,68,0.00,,---,0.00,VWS V13.00,2013-03-27 07:20:00,
2013-03-27 01:25:00,26.8,17.7,29.99,SE,134,6.0,7.0,68,0.00,,---,0.00,VWS V13.00,2013-03-27 07:25:00,
2013-03-27 01:30:00,27.0,17.9,29.99,SE,134,4.0,9.0,68,0.00,,---,0.00,VWS V13.00,2013-03-27 07:30:00,
2013-03-27 01:35:00,27.0,17.9,29.99,SE,134,5.0,9.0,68,0.00,,---,0.00,VWS V13.00,2013-03-27 07:35:00,
2013-03-27 01:40:00,27.4,17.5,29.99,SE,134,7.0,7.0,66,0.00,,---,0.00,VWS V13.00,2013-03-27 07:40:00,
2013-03-27 01:45:00,27.7,17.5,29.99,SE,134,5.0,8.0,65,0.00,,---,0.00,VWS V13.00,2013-03-27 07:45:00,
2013-03-27 01:50:00,27.8,17.6,29.99,SE,134,4.0,8.0,65,0.00,,---,0.00,VWS V13.00,2013-03-27 07:50:00,
2013-03-27 01:55:00,27.7,17.5,29.98,SE,134,3.0,8.0,65,0.00,,---,0.00,VWS V13.00,2013-03-27 07:55:00,
2013-03-27 02:00:00,27.6,17.4,29.98,SE,134,2.0,8.0,65,0.00,,---,0.00,VWS V13.00,2013-03-27 08:00:00,
2013-03-27 02:05:00,27.5,17.3,29.98,SE,134,4.0,8.0,65,0.00,,---,0.00,VWS V13.00,2013-03-27 08:05:00,
2013-03-27 02:10:00,27.9,17.3,29.98,SE,134,3.0,4.0,64,0.00,,---,0.00,VWS V13.00,2013-03-27 08:10:00,
2013-03-27 02:15:00,27.8,17.2,29.98,SE,134,3.0,5.0,64,0.00,,---,0.00,VWS V13.00,2013-03-27 08:15:00,
2013-03-27 02:20:00,27.4,17.5,29.98,SE,134,3.0,5.0,66,0.00,,---,0.00,VWS V13.00,2013-03-27 08:20:00,
2013-03-27 02:25:00,26.8,17.3,29.98,SE,134,5.0,6.0,67,0.00,,---,0.00,VWS V13.00,2013-03-27 08:25:00,
2013-03-27 02:30:00,26.1,17.3,29.98,SE,134,5.0,6.0,69,0.00,,---,0.00,VWS V13.00,2013-03-27 08:30:00,
2013-03-27 02:35:00,25.6,17.5,29.98,SE,134,7.0,7.0,71,0.00,,---,0.00,VWS V13.00,2013-03-27 08:35:00,
2013-03-27 02:40:00,25.2,17.5,29.99,East,88,9.0,9.0,72,0.00,,---,0.00,VWS V13.00,2013-03-27 08:40:00,
2013-03-27 02:45:00,24.9,17.8,29.99,SE,134,6.0,9.0,74,0.00,,---,0.00,VWS V13.00,2013-03-27 08:45:00,
2013-03-27 02:50:00,24.6,17.5,29.99,SE,134,6.0,9.0,74,0.00,,---,0.00,VWS V13.00,2013-03-27 08:50:00,
2013-03-27 02:55:00,24.3,17.2,30.00,SE,133,5.0,9.0,74,0.00,,---,0.00,VWS V13.00,2013-03-27 08:55:00,
2013-03-27 03:00:00,23.9,16.8,30.00,SE,133,6.0,9.0,74,0.00,,---,0.00,VWS V13.00,2013-03-27 09:00:00,
2013-03-27 03:05:00,24.0,16.9,30.00,SE,133,5.0,9.0,74,0.00,,---,0.00,VWS V13.00,2013-03-27 09:05:00,
2013-03-27 03:10:00,23.9,17.1,29.99,SE,132,7.0,8.0,75,0.00,,---,0.00,VWS V13.00,2013-03-27 09:10:00,
2013-03-27 03:15:00,23.9,17.5,29.99,SE,133,8.0,10.0,76,0.00,,---,0.00,VWS V13.00,2013-03-27 09:15:00,
2013-03-27 03:20:00,23.9,17.1,29.99,SE,142,9.0,10.0,75,0.00,,---,0.00,VWS V13.00,2013-03-27 09:20:00,
2013-03-27 03:25:00,23.9,17.1,29.99,SE,135,6.0,10.0,75,0.00,,---,0.00,VWS V13.00,2013-03-27 09:25:00,
2013-03-27 03:30:00,24.0,17.2,29.99,SE,133,9.0,10.0,75,0.00,,---,0.00,VWS V13.00,2013-03-27 09:30:00,
2013-03-27 03:35:00,24.4,17.0,29.99,SE,132,7.0,10.0,73,0.00,,---,0.00,VWS V13.00,2013-03-27 09:35:00,
2013-03-27 03:40:00,24.7,17.3,29.98,SE,136,7.0,9.0,73,0.00,,---,0.00,VWS V13.00,2013-03-27 09:40:00,
2013-03-27 03:45:00,24.8,17.4,29.98,SE,127,7.0,10.0,73,0.00,,---,0.00,VWS V13.00,2013-03-27 09:45:00,
2013-03-27 03:50:00,25.4,17.3,29.98,ESE,122,7.0,10.0,71,0.00,,---,0.00,VWS V13.00,2013-03-27 09:50:00,
2013-03-27 03:55:00,25.6,17.5,29.96,SE,128,9.0,10.0,71,0.00,,---,0.00,VWS V13.00,2013-03-27 09:55:00,
2013-03-27 04:00:00,25.4,17.3,29.96,ESE,121,6.0,10.0,71,0.00,,---,0.00,VWS V13.00,2013-03-27 10:00:00,
2013-03-27 04:05:00,24.9,17.2,29.96,SE,125,8.0,10.0,72,0.00,,---,0.00,VWS V13.00,2013-03-27 10:05:00,
2013-03-27 04:10:00,25.3,17.2,29.97,SE,126,9.0,11.0,71,0.00,,---,0.00,VWS V13.00,2013-03-27 10:10:00,
2013-03-27 04:15:00,25.4,17.3,29.97,SE,126,9.0,11.0,71,0.00,,---,0.00,VWS V13.00,2013-03-27 10:15:00,
2013-03-27 04:20:00,25.2,17.1,29.97,SE,133,11.0,12.0,71,0.00,,---,0.00,VWS V13.00,2013-03-27 10:20:00,
2013-03-27 04:25:00,25.6,17.2,29.97,SE,134,11.0,12.0,70,0.00,,---,0.00,VWS V13.00,2013-03-27 10:25:00,
2013-03-27 04:30:00,25.6,17.2,29.97,SE,130,10.0,12.0,70,0.00,,---,0.00,VWS V13.00,2013-03-27 10:30:00,
2013-03-27 04:35:00,25.4,17.0,29.97,SE,130,8.0,12.0,70,0.00,,---,0.00,VWS V13.00,2013-03-27 10:35:00,
2013-03-27 04:40:00,24.6,16.9,29.97,SE,141,11.0,11.0,72,0.00,,---,0.00,VWS V13.00,2013-03-27 10:40:00,
2013-03-27 04:45:00,24.4,16.7,29.97,SE,130,10.0,12.0,72,0.00,,---,0.00,VWS V13.00,2013-03-27 10:45:00,
2013-03-27 04:50:00,25.1,17.0,29.97,SE,134,10.0,12.0,71,0.00,,---,0.00,VWS V13.00,2013-03-27 10:50:00,
2013-03-27 04:55:00,25.7,17.3,29.97,SE,129,12.0,13.0,70,0.00,,---,0.00,VWS V13.00,2013-03-27 10:55:00,
2013-03-27 05:00:00,25.9,17.5,29.97,SE,137,13.0,13.0,70,0.00,,---,0.00,VWS V13.00,2013-03-27 11:00:00,
2013-03-27 05:05:00,25.8,17.0,29.97,SE,144,12.0,14.0,69,0.00,,---,0.00,VWS V13.00,2013-03-27 11:05:00,
2013-03-27 05:10:00,26.0,17.2,29.96,SE,141,11.0,13.0,69,0.00,,---,0.00,VWS V13.00,2013-03-27 11:10:00,
2013-03-27 05:15:00,26.1,17.3,29.96,SE,141,9.0,13.0,69,0.00,,---,0.00,VWS V13.00,2013-03-27 11:15:00,
2013-03-27 05:20:00,25.9,17.1,29.96,SE,142,13.0,13.0,69,0.00,,---,0.00,VWS V13.00,2013-03-27 11:20:00,
2013-03-27 05:25:00,26.0,17.2,29.96,SE,138,10.0,13.0,69,0.00,,---,0.00,VWS V13.00,2013-03-27 11:25:00,
2013-03-27 05:30:00,25.7,17.0,29.96,SE,145,9.0,13.0,69,0.00,,---,0.00,VWS V13.00,2013-03-27 11:30:00,
2013-03-27 05:35:00,25.3,16.9,29.96,SE,136,6.0,13.0,70,0.00,,---,0.00,VWS V13.00,2013-03-27 11:35:00,
2013-03-27 05:40:00,24.9,16.8,29.98,SE,140,9.0,9.0,71,0.00,,---,0.00,VWS V13.00,2013-03-27 11:40:00,
2013-03-27 05:45:00,24.5,16.5,29.98,SSE,147,10.0,11.0,71,0.00,,---,0.00,VWS V13.00,2013-03-27 11:45:00,
2013-03-27 05:50:00,24.5,16.8,29.98,SE,145,9.0,11.0,72,0.00,,---,0.00,VWS V13.00,2013-03-27 11:50:00,
2013-03-27 05:55:00,24.7,17.0,29.98,SE,146,8.0,11.0,72,0.00,,---,0.00,VWS V13.00,2013-03-27 11:55:00,
2013-03-27 06:00:00,24.8,17.1,29.98,SE,144,9.0,11.0,72,0.00,,---,0.00,VWS V13.00,2013-03-27 12:00:00,
2013-03-27 06:05:00,24.8,16.8,29.98,SE,139,10.0,11.0,71,0.00,,---,0.00,VWS V13.00,2013-03-27 12:05:00,
2013-03-27 06:10:00,24.7,17.0,29.98,SE,146,9.0,11.0,72,0.00,,---,0.00,VWS V13.00,2013-03-27 12:10:00,
2013-03-27 06:15:00,24.7,17.0,29.98,SE,144,9.0,12.0,72,0.00,,---,0.00,VWS V13.00,2013-03-27 12:15:00,
2013-03-27 06:20:00,24.7,17.0,29.98,SSE,153,11.0,12.0,72,0.00,,---,0.00,VWS V13.00,2013-03-27 12:20:00,
2013-03-27 06:25:00,24.7,17.0,29.98,SE,142,10.0,12.0,72,0.00,,---,0.00,VWS V13.00,2013-03-27 12:25:00,
2013-03-27 06:30:00,24.6,16.9,29.98,SE,145,10.0,12.0,72,0.00,,---,0.00,VWS V13.00,2013-03-27 12:30:00,
2013-03-27 06:35:00,24.3,16.9,29.98,SE,145,9.0,12.0,73,0.00,,---,0.00,VWS V13.00,2013-03-27 12:35:00,
2013-03-27 06:40:00,24.2,16.8,29.98,SSE,149,11.0,11.0,73,0.00,,---,0.00,VWS V13.00,2013-03-27 12:40:00,
2013-03-27 06:45:00,24.2,16.8,29.98,SSE,150,8.0,11.0,73,0.00,,---,0.00,VWS V13.00,2013-03-27 12:45:00,
2013-03-27 06:50:00,24.2,16.8,29.98,SE,145,7.0,11.0,73,0.00,,---,0.00,VWS V13.00,2013-03-27 12:50:00,
2013-03-27 06:55:00,24.0,16.9,30.01,SSE,155,8.0,11.0,74,0.00,,---,0.00,VWS V13.00,2013-03-27 12:55:00,
2013-03-27 07:00:00,23.9,16.8,30.01,SSE,149,9.0,11.0,74,0.00,,---,0.00,VWS V13.00,2013-03-27 13:00:00,
2013-03-27 07:05:00,23.9,16.8,30.01,SSE,148,6.0,11.0,74,0.00,,---,0.00,VWS V13.00,2013-03-27 13:05:00,
2013-03-27 07:10:00,23.9,16.8,30.01,SSE,149,7.0,9.0,74,0.00,,---,0.00,VWS V13.00,2013-03-27 13:10:00,
2013-03-27 07:15:00,23.8,16.7,30.01,SSE,149,5.0,9.0,74,0.00,,---,0.00,VWS V13.00,2013-03-27 13:15:00,
2013-03-27 07:20:00,23.7,17.0,30.01,SSE,150,7.0,9.0,75,0.00,,---,0.00,VWS V13.00,2013-03-27 13:20:00,
2013-03-27 07:25:00,23.9,17.1,30.01,SSE,148,7.0,10.0,75,0.00,,---,0.00,VWS V13.00,2013-03-27 13:25:00,
2013-03-27 07:30:00,24.2,17.1,30.01,SE,146,7.0,10.0,74,0.00,,---,0.00,VWS V13.00,2013-03-27 13:30:00,
2013-03-27 07:35:00,24.3,17.2,30.01,SE,144,7.0,10.0,74,0.00,,---,0.00,VWS V13.00,2013-03-27 13:35:00,
2013-03-27 07:40:00,24.4,17.3,30.01,SE,141,6.0,7.0,74,0.00,,---,0.00,VWS V13.00,2013-03-27 13:40:00,
2013-03-27 07:45:00,24.4,17.3,30.01,SE,140,5.0,7.0,74,0.00,,---,0.00,VWS V13.00,2013-03-27 13:45:00,
2013-03-27 07:50:00,24.5,17.4,30.01,SE,141,6.0,7.0,74,0.00,,---,0.00,VWS V13.00,2013-03-27 13:50:00,
2013-03-27 07:55:00,24.7,17.9,30.04,SE,143,6.0,9.0,75,0.00,,---,0.00,VWS V13.00,2013-03-27 13:55:00,
2013-03-27 08:00:00,25.2,18.4,30.04,SE,144,5.0,9.0,75,0.00,,---,0.00,VWS V13.00,2013-03-27 14:00:00,
2013-03-27 08:05:00,25.8,18.4,30.04,SE,145,6.0,9.0,73,0.00,,---,0.00,VWS V13.00,2013-03-27 14:05:00,
2013-03-27 08:10:00,26.1,18.6,30.03,SE,144,5.0,8.0,73,0.00,,---,0.00,VWS V13.00,2013-03-27 14:10:00,
2013-03-27 08:15:00,26.6,19.1,30.03,SE,142,6.0,8.0,73,0.00,,---,0.00,VWS V13.00,2013-03-27 14:15:00,
2013-03-27 08:20:00,27.0,19.2,30.03,SE,142,4.0,8.0,72,0.00,,---,0.00,VWS V13.00,2013-03-27 14:20:00,
2013-03-27 08:25:00,27.5,19.7,30.04,SE,142,5.0,8.0,72,0.00,,---,0.00,VWS V13.00,2013-03-27 14:25:00,
2013-03-27 08:30:00,28.1,19.9,30.04,SE,141,6.0,8.0,71,0.00,,---,0.00,VWS V13.00,2013-03-27 14:30:00,
2013-03-27 08:35:00,28.8,20.3,30.04,SE,140,5.0,8.0,70,0.00,,---,0.00,VWS V13.00,2013-03-27 14:35:00,
2013-03-27 08:40:00,29.4,20.2,30.02,SE,138,6.0,7.0,68,0.00,,---,0.00,VWS V13.00,2013-03-27 14:40:00,
2013-03-27 08:45:00,30.0,20.7,30.02,SE,137,5.0,8.0,68,0.00,,---,0.00,VWS V13.00,2013-03-27 14:45:00,
2013-03-27 08:50:00,30.3,20.3,30.02,SE,137,7.0,10.0,66,0.00,,---,0.00,VWS V13.00,2013-03-27 14:50:00,
2013-03-27 08:55:00,31.0,21.0,30.03,SE,142,5.0,10.0,66,0.00,,---,0.00,VWS V13.00,2013-03-27 14:55:00,
2013-03-27 09:00:00,31.7,21.3,30.03,SE,133,4.0,10.0,65,0.00,,---,0.00,VWS V13.00,2013-03-27 15:00:00,
2013-03-27 09:05:00,32.3,21.9,30.03,SE,134,3.0,10.0,65,0.00,,---,0.00,VWS V13.00,2013-03-27 15:05:00,
2013-03-27 09:10:00,33.1,22.3,30.03,SE,134,4.0,6.0,64,0.00,,---,0.00,VWS V13.00,2013-03-27 15:10:00,
2013-03-27 09:15:00,34.1,22.8,30.03,SE,134,4.0,6.0,63,0.00,,---,0.00,VWS V13.00,2013-03-27 15:15:00,
2013-03-27 09:20:00,34.9,23.2,30.03,SE,135,4.0,7.0,62,0.00,,---,0.00,VWS V13.00,2013-03-27 15:20:00,
2013-03-27 09:25:00,35.6,22.7,30.02,SE,135,4.0,7.0,59,0.00,,---,0.00,VWS V13.00,2013-03-27 15:25:00,
2013-03-27 09:30:00,36.2,22.9,30.02,SE,135,4.0,7.0,58,0.00,,---,0.00,VWS V13.00,2013-03-27 15:30:00,
2013-03-27 09:35:00,36.9,23.5,30.02,SE,134,4.0,7.0,58,0.00,,---,0.00,VWS V13.00,2013-03-27 15:35:00,
2013-03-27 09:40:00,37.7,23.4,30.01,SE,134,2.0,4.0,56,0.00,,---,0.00,VWS V13.00,2013-03-27 15:40:00,
2013-03-27 09:45:00,38.5,22.9,30.01,SE,135,0.0,4.0,53,0.00,,---,0.00,VWS V13.00,2013-03-27 15:45:00,
2013-03-27 09:50:00,39.5,22.9,30.01,SE,134,0.0,4.0,51,0.00,,---,0.00,VWS V13.00,2013-03-27 15:50:00,
2013-03-27 09:55:00,40.3,23.1,29.99,SE,134,0.0,4.0,50,0.00,,---,0.00,VWS V13.00,2013-03-27 15:55:00,
2013-03-27 10:00:00,40.9,22.2,29.99,SE,135,0.0,4.0,47,0.00,,---,0.00,VWS V13.00,2013-03-27 16:00:00,
2013-03-27 10:05:00,41.6,22.9,29.99,SE,135,0.0,4.0,47,0.00,,---,0.00,VWS V13.00,2013-03-27 16:05:00,
2013-03-27 10:10:00,42.3,22.0,29.98,SE,135,0.0,0.0,44,0.00,,---,0.00,VWS V13.00,2013-03-27 16:10:00,
2013-03-27 10:15:00,43.0,23.6,29.98,SE,134,0.0,1.0,46,0.00,,---,0.00,VWS V13.00,2013-03-27 16:15:00,
2013-03-27 10:20:00,43.7,23.8,29.98,SW,217,0.0,4.0,45,0.00,,---,0.00,VWS V13.00,2013-03-27 16:20:00,
2013-03-27 10:25:00,44.4,23.9,29.97,NW,317,0.0,4.0,44,0.00,,---,0.00,VWS V13.00,2013-03-27 16:25:00,
2013-03-27 10:30:00,44.9,23.8,29.97,NW,307,6.0,7.0,43,0.00,,---,0.00,VWS V13.00,2013-03-27 16:30:00,
2013-03-27 10:35:00,45.0,23.3,29.97,West,274,5.0,7.0,42,0.00,,---,0.00,VWS V13.00,2013-03-27 16:35:00,
2013-03-27 10:39:00,45.6,25.0,29.97,NW,314,4.0,5.0,44,0.00,,---,0.00,VWS V13.00,2013-03-27 16:39:00,
2013-03-27 10:44:00,46.1,24.3,29.97,WNW,292,3.0,6.0,42,0.00,,---,0.00,VWS V13.00,2013-03-27 16:44:00,
2013-03-27 10:49:00,46.7,24.3,29.97,West,281,5.0,7.0,41,0.00,,---,0.00,VWS V13.00,2013-03-27 16:49:00,
2013-03-27 10:54:00,47.0,23.3,29.96,NW,304,6.0,10.0,39,0.00,,---,0.00,VWS V13.00,2013-03-27 16:54:00,
2013-03-27 10:59:00,47.3,24.2,29.96,West,271,4.0,10.0,40,0.00,,---,0.00,VWS V13.00,2013-03-27 16:59:00,
2013-03-27 11:04:00,47.7,24.6,29.96,West,278,5.0,10.0,40,0.00,,---,0.00,VWS V13.00,2013-03-27 17:04:00,
2013-03-27 11:09:00,48.1,23.7,29.96,NW,304,4.0,6.0,38,0.00,,---,0.00,VWS V13.00,2013-03-27 17:09:00,
2013-03-27 11:14:00,48.1,24.3,29.96,NW,316,3.0,7.0,39,0.00,,---,0.00,VWS V13.00,2013-03-27 17:14:00,
2013-03-27 11:19:00,48.0,23.0,29.96,NW,315,0.0,7.0,37,0.00,,---,0.00,VWS V13.00,2013-03-27 17:19:00,
2013-03-27 11:24:00,48.2,23.2,29.96,WNW,287,1.0,7.0,37,0.00,,---,0.00,VWS V13.00,2013-03-27 17:24:00,
2013-03-27 11:29:00,48.4,23.3,29.96,NW,309,0.0,7.0,37,0.00,,---,0.00,VWS V13.00,2013-03-27 17:29:00,
2013-03-27 11:34:00,48.5,24.1,29.96,NW,307,3.0,7.0,38,0.00,,---,0.00,VWS V13.00,2013-03-27 17:34:00,
2013-03-27 11:39:00,48.8,23.7,29.95,NW,313,0.0,0.0,37,0.00,,---,0.00,VWS V13.00,2013-03-27 17:39:00,
2013-03-27 11:44:00,49.2,24.1,29.95,SSW,211,5.0,6.0,37,0.00,,---,0.00,VWS V13.00,2013-03-27 17:44:00,
2013-03-27 11:49:00,49.8,23.9,29.95,WSW,245,2.0,9.0,36,0.00,,---,0.00,VWS V13.00,2013-03-27 17:49:00,
2013-03-27 11:54:00,50.2,24.3,29.95,NW,308,3.0,9.0,36,0.00,,---,0.00,VWS V13.00,2013-03-27 17:54:00,
2013-03-27 11:59:00,50.4,23.8,29.95,West,264,8.0,11.0,35,0.00,,---,0.00,VWS V13.00,2013-03-27 17:59:00,
2013-03-27 12:04:00,50.1,24.2,29.95,WSW,252,6.0,11.0,36,0.00,,---,0.00,VWS V13.00,2013-03-27 18:04:00,
2013-03-27 12:09:00,49.9,23.4,29.94,West,277,5.0,5.0,35,0.00,,---,0.00,VWS V13.00,2013-03-27 18:09:00,
2013-03-27 12:14:00,50.2,24.3,29.94,NW,326,5.0,14.0,36,0.00,,---,0.00,VWS V13.00,2013-03-27 18:14:00,
2013-03-27 12:19:00,50.4,24.5,29.94,NW,315,8.0,14.0,36,0.00,,---,0.00,VWS V13.00,2013-03-27 18:19:00,
2013-03-27 12:24:00,50.9,23.5,29.94,NW,313,5.0,14.0,34,0.00,,---,0.00,VWS V13.00,2013-03-27 18:24:00,
2013-03-27 12:29:00,50.8,24.1,29.94,North,355,7.0,16.0,35,0.00,,---,0.00,VWS V13.00,2013-03-27 18:29:00,
2013-03-27 12:34:00,51.1,23.7,29.94,NNW,331,11.0,16.0,34,0.00,,---,0.00,VWS V13.00,2013-03-27 18:34:00,
2013-03-27 12:39:00,50.8,24.1,29.94,NW,318,1.0,4.0,35,0.00,,---,0.00,VWS V13.00,2013-03-27 18:39:00,
2013-03-27 12:44:00,50.7,24.1,29.94,NNW,348,5.0,14.0,35,0.00,,---,0.00,VWS V13.00,2013-03-27 18:44:00,
2013-03-27 12:49:00,51.2,24.5,29.94,NNW,348,10.0,14.0,35,0.00,,---,0.00,VWS V13.00,2013-03-27 18:49:00,
2013-03-27 12:54:00,51.4,24.7,29.95,NNW,331,10.0,14.0,35,0.00,,---,0.00,VWS V13.00,2013-03-27 18:54:00,
2013-03-27 12:59:00,51.6,24.2,29.95,NNE,13,7.0,14.0,34,0.00,,---,0.00,VWS V13.00,2013-03-27 18:59:00,
2013-03-27 13:04:00,51.6,23.5,29.95,NNW,344,0.0,14.0,33,0.00,,---,0.00,VWS V13.00,2013-03-27 19:04:00,
2013-03-27 13:09:00,51.5,24.1,29.95,NNE,29,3.0,6.0,34,0.00,,---,0.00,VWS V13.00,2013-03-27 19:09:00,
2013-03-27 13:14:00,51.4,25.4,29.95,NNW,346,4.0,12.0,36,0.00,,---,0.00,VWS V13.00,2013-03-27 19:14:00,
2013-03-27 13:19:00,51.9,24.4,29.95,North,351,6.0,12.0,34,0.00,,---,0.00,VWS V13.00,2013-03-27 19:19:00,
2013-03-27 13:24:00,52.1,25.3,29.95,North,355,12.0,15.0,35,0.00,,---,0.00,VWS V13.00,2013-03-27 19:24:00,
2013-03-27 13:29:00,52.2,24.0,29.95,North,350,7.0,15.0,33,0.00,,---,0.00,VWS V13.00,2013-03-27 19:29:00,
2013-03-27 13:34:00,52.1,26.0,29.95,North,9,6.0,15.0,36,0.00,,---,0.00,VWS V13.00,2013-03-27 19:34:00,
2013-03-27 13:39:00,52.3,24.8,29.95,West,271,5.0,7.0,34,0.00,,---,0.00,VWS V13.00,2013-03-27 19:39:00,
2013-03-27 13:44:00,52.3,25.5,29.95,WNW,300,8.0,14.0,35,0.00,,---,0.00,VWS V13.00,2013-03-27 19:44:00,
2013-03-27 13:49:00,52.3,24.8,29.95,NW,314,0.0,14.0,34,0.00,,---,0.00,VWS V13.00,2013-03-27 19:49:00,
2013-03-27 13:54:00,52.4,24.9,29.95,West,275,7.0,14.0,34,0.00,,---,0.00,VWS V13.00,2013-03-27 19:54:00,
2013-03-27 13:59:00,53.1,25.5,29.95,WNW,295,5.0,14.0,34,0.00,,---,0.00,VWS V13.00,2013-03-27 19:59:00,
2013-03-27 14:04:00,53.6,25.2,29.95,WNW,300,3.0,14.0,33,0.00,,---,0.00,VWS V13.00,2013-03-27 20:04:00,
2013-03-27 14:09:00,53.1,24.8,29.93,NW,309,2.0,5.0,33,0.00,,---,0.00,VWS V13.00,2013-03-27 20:09:00,
2013-03-27 14:14:00,52.2,24.0,29.93,WNW,294,7.0,7.0,33,0.00,,---,0.00,VWS V13.00,2013-03-27 20:14:00,
2013-03-27 14:19:00,52.2,24.7,29.93,WNW,302,3.0,7.0,34,0.00,,---,0.00,VWS V13.00,2013-03-27 20:19:00,
2013-03-27 14:24:00,52.1,24.6,29.94,NNW,329,0.0,7.0,34,0.00,,---,0.00,VWS V13.00,2013-03-27 20:24:00,
2013-03-27 14:29:00,52.2,24.7,29.94,NNW,329,0.0,7.0,34,0.00,,---,0.00,VWS V13.00,2013-03-27 20:29:00,
2013-03-27 14:34:00,52.8,24.5,29.94,NNW,336,4.0,10.0,33,0.00,,---,0.00,VWS V13.00,2013-03-27 20:34:00,
2013-03-27 14:39:00,53.4,25.0,29.93,WNW,296,4.0,6.0,33,0.00,,---,0.00,VWS V13.00,2013-03-27 20:39:00,
2013-03-27 14:44:00,52.9,24.6,29.93,WNW,296,0.0,6.0,33,0.00,,---,0.00,VWS V13.00,2013-03-27 20:44:00,
2013-03-27 14:49:00,53.3,25.0,29.93,West,271,6.0,9.0,33,0.00,,---,0.00,VWS V13.00,2013-03-27 20:49:00,
2013-03-27 14:54:00,53.8,25.4,29.93,NW,311,11.0,14.0,33,0.00,,---,0.00,VWS V13.00,2013-03-27 20:54:00,
2013-03-27 14:59:00,53.9,25.5,29.93,NW,313,9.0,14.0,33,0.00,,---,0.00,VWS V13.00,2013-03-27 20:59:00,
2013-03-27 15:04:00,53.7,26.0,29.93,West,279,0.0,14.0,34,0.00,,---,0.00,VWS V13.00,2013-03-27 21:04:00,
2013-03-27 15:09:00,53.7,24.6,29.93,North,9,3.0,5.0,32,0.00,,---,0.00,VWS V13.00,2013-03-27 21:09:00,
2013-03-27 15:14:00,53.8,25.4,29.93,NW,315,10.0,14.0,33,0.00,,---,0.00,VWS V13.00,2013-03-27 21:14:00,
2013-03-27 15:19:00,53.8,25.4,29.93,NW,314,4.0,14.0,33,0.00,,---,0.00,VWS V13.00,2013-03-27 21:19:00,
2013-03-27 15:24:00,53.5,25.8,29.93,NNE,26,5.0,14.0,34,0.00,,---,0.00,VWS V13.00,2013-03-27 21:24:00,
2013-03-27 15:29:00,54.2,25.7,29.93,NNW,329,0.0,14.0,33,0.00,,---,0.00,VWS V13.00,2013-03-27 21:29:00,
2013-03-27 15:34:00,54.4,25.9,29.93,NW,306,11.0,14.0,33,0.00,,---,0.00,VWS V13.00,2013-03-27 21:34:00,
2013-03-27 15:39:00,54.4,25.9,29.93,West,281,7.0,10.0,33,0.00,,---,0.00,VWS V13.00,2013-03-27 21:39:00,
2013-03-27 15:44:00,54.1,24.9,29.93,WSW,247,4.0,10.0,32,0.00,,---,0.00,VWS V13.00,2013-03-27 21:44:00,
2013-03-27 15:49:00,53.6,24.5,29.93,SW,223,1.0,10.0,32,0.00,,---,0.00,VWS V13.00,2013-03-27 21:49:00,
2013-03-27 15:54:00,53.6,24.5,29.93,NW,304,4.0,10.0,32,0.00,,---,0.00,VWS V13.00,2013-03-27 21:54:00,
2013-03-27 15:59:00,53.7,24.6,29.93,WNW,300,6.0,12.0,32,0.00,,---,0.00,VWS V13.00,2013-03-27 21:59:00,
2013-03-27 16:04:00,54.0,24.8,29.93,NNW,338,3.0,12.0,32,0.00,,---,0.00,VWS V13.00,2013-03-27 22:04:00,
2013-03-27 16:09:00,54.0,24.8,29.93,NW,325,6.0,7.0,32,0.00,,---,0.00,VWS V13.00,2013-03-27 22:09:00,
2013-03-27 16:14:00,54.1,24.9,29.93,NNW,346,4.0,14.0,32,0.00,,---,0.00,VWS V13.00,2013-03-27 22:14:00,
2013-03-27 16:19:00,53.7,25.3,29.93,North,5,4.0,14.0,33,0.00,,---,0.00,VWS V13.00,2013-03-27 22:19:00,
2013-03-27 16:24:00,53.6,24.5,29.93,North,9,4.0,14.0,32,0.00,,---,0.00,VWS V13.00,2013-03-27 22:24:00,
2013-03-27 16:29:00,54.2,25.7,29.93,WNW,292,4.0,14.0,33,0.00,,---,0.00,VWS V13.00,2013-03-27 22:29:00,
2013-03-27 16:34:00,54.1,24.9,29.93,West,272,3.0,14.0,32,0.00,,---,0.00,VWS V13.00,2013-03-27 22:34:00,
2013-03-27 16:39:00,53.9,24.7,29.93,West,271,0.0,0.0,32,0.00,,---,0.00,VWS V13.00,2013-03-27 22:39:00,
2013-03-27 16:44:00,54.1,24.9,29.93,West,269,0.0,1.0,32,0.00,,---,0.00,VWS V13.00,2013-03-27 22:44:00,
2013-03-27 16:49:00,54.1,24.9,29.93,SSW,199,3.0,9.0,32,0.00,,---,0.00,VWS V13.00,2013-03-27 22:49:00,
2013-03-27 16:54:00,53.9,24.0,29.93,SSW,199,1.0,9.0,31,0.00,,---,0.00,VWS V13.00,2013-03-27 22:54:00,
2013-03-27 16:59:00,53.9,24.7,29.93,SSW,198,0.0,9.0,32,0.00,,---,0.00,VWS V13.00,2013-03-27 22:59:00,
2013-03-27 17:04:00,54.3,25.1,29.93,SW,233,5.0,9.0,32,0.00,,---,0.00,VWS V13.00,2013-03-27 23:04:00,
2013-03-27 17:09:00,54.2,25.0,29.93,West,277,4.0,5.0,32,0.00,,---,0.00,VWS V13.00,2013-03-27 23:09:00,
2013-03-27 17:14:00,54.0,24.8,29.93,WNW,290,6.0,9.0,32,0.00,,---,0.00,VWS V13.00,2013-03-27 23:14:00,
2013-03-27 17:19:00,53.7,24.6,29.93,West,261,2.0,9.0,32,0.00,,---,0.00,VWS V13.00,2013-03-27 23:19:00,
2013-03-27 17:24:00,53.7,24.6,29.93,West,267,3.0,9.0,32,0.00,,---,0.00,VWS V13.00,2013-03-27 23:24:00,
2013-03-27 17:29:00,53.8,24.6,29.93,NW,323,4.0,9.0,32,0.00,,---,0.00,VWS V13.00,2013-03-27 23:29:00,
2013-03-27 17:34:00,53.7,25.3,29.93,NW,323,0.0,9.0,33,0.00,,---,0.00,VWS V13.00,2013-03-27 23:34:00,
2013-03-27 17:39:00,53.7,24.6,29.93,NW,326,0.0,0.0,32,0.00,,---,0.00,VWS V13.00,2013-03-27 23:39:00,
2013-03-27 17:44:00,53.9,24.7,29.93,NNW,327,0.0,7.0,32,0.00,,---,0.00,VWS V13.00,2013-03-27 23:44:00,
2013-03-27 17:49:00,53.9,24.7,29.93,North,355,0.0,10.0,32,0.00,,---,0.00,VWS V13.00,2013-03-27 23:49:00,
2013-03-27 17:54:00,53.7,24.6,29.94,NNE,27,0.0,10.0,32,0.00,,---,0.00,VWS V13.00,2013-03-27 23:54:00,
2013-03-27 17:59:00,53.6,24.5,29.94,NNE,28,0.0,10.0,32,0.00,,---,0.00,VWS V13.00,2013-03-27 23:59:00,
2013-03-27 18:04:00,53.8,25.4,29.94,NNE,28,0.0,10.0,33,0.00,,---,0.00,VWS V13.00,2013-03-28 00:04:00,
2013-03-27 18:09:00,53.7,24.6,29.94,NNE,28,0.0,0.0,32,0.00,,---,0.00,VWS V13.00,2013-03-28 00:09:00,
2013-03-27 18:14:00,53.7,25.3,29.94,ESE,102,4.0,9.0,33,0.00,,---,0.00,VWS V13.00,2013-03-28 00:14:00,
2013-03-27 18:19:00,53.5,25.8,29.94,ESE,107,4.0,9.0,34,0.00,,---,0.00,VWS V13.00,2013-03-28 00:19:00,
2013-03-27 18:24:00,53.2,25.6,29.95,East,98,5.0,9.0,34,0.00,,---,0.00,VWS V13.00,2013-03-28 00:24:00,
2013-03-27 18:29:00,52.3,25.5,29.95,East,90,9.0,12.0,35,0.00,,---,0.00,VWS V13.00,2013-03-28 00:29:00,
2013-03-27 18:34:00,51.7,25.6,29.95,East,101,5.0,12.0,36,0.00,,---,0.00,VWS V13.00,2013-03-28 00:34:00,
2013-03-27 18:39:00,51.3,25.3,29.95,East,92,6.0,10.0,36,0.00,,---,0.00,VWS V13.00,2013-03-28 00:39:00,
2013-03-27 18:44:00,50.8,25.5,29.95,East,81,11.0,14.0,37,0.00,,---,0.00,VWS V13.00,2013-03-28 00:44:00,
2013-03-27 18:49:00,50.2,25.0,29.95,East,82,13.0,15.0,37,0.00,,---,0.00,VWS V13.00,2013-03-28 00:49:00,
2013-03-27 18:54:00,49.6,25.0,29.97,East,93,10.0,15.0,38,0.00,,---,0.00,VWS V13.00,2013-03-28 00:54:00,
2013-03-27 18:59:00,49.0,25.1,29.97,East,86,12.0,15.0,39,0.00,,---,0.00,VWS V13.00,2013-03-28 00:59:00,
2013-03-27 19:04:00,48.6,24.8,29.97,East,86,10.0,15.0,39,0.00,,---,0.00,VWS V13.00,2013-03-28 01:04:00,
2013-03-27 19:09:00,48.2,25.6,29.98,East,86,5.0,6.0,41,0.00,,---,0.00,VWS V13.00,2013-03-28 01:09:00,
2013-03-27 19:14:00,47.8,24.7,29.98,ESE,105,9.0,11.0,40,0.00,,---,0.00,VWS V13.00,2013-03-28 01:14:00,
2013-03-27 19:19:00,47.4,24.3,29.98,ESE,107,7.0,11.0,40,0.00,,---,0.00,VWS V13.00,2013-03-28 01:19:00,
2013-03-27 19:24:00,47.2,24.7,29.99,ESE,106,6.0,11.0,41,0.00,,---,0.00,VWS V13.00,2013-03-28 01:24:00,
2013-03-27 19:29:00,46.9,25.0,29.99,ESE,119,6.0,11.0,42,0.00,,---,0.00,VWS V13.00,2013-03-28 01:29:00,
2013-03-27 19:34:00,46.6,24.8,29.99,ESE,119,4.0,11.0,42,0.00,,---,0.00,VWS V13.00,2013-03-28 01:34:00,
2013-03-27 19:39:00,46.2,24.4,30.00,ESE,122,6.0,7.0,42,0.00,,---,0.00,VWS V13.00,2013-03-28 01:39:00,
2013-03-27 19:44:00,45.9,24.7,30.00,ESE,122,3.0,8.0,43,0.00,,---,0.00,VWS V13.00,2013-03-28 01:44:00,
2013-03-27 19:49:00,45.5,24.3,30.00,ESE,122,3.0,8.0,43,0.00,,---,0.00,VWS V13.00,2013-03-28 01:49:00,
2013-03-27 19:54:00,45.0,24.4,29.99,ESE,122,5.0,8.0,44,0.00,,---,0.00,VWS V13.00,2013-03-28 01:54:00,
2013-03-27 19:59:00,44.6,24.6,29.99,ESE,122,4.0,8.0,45,0.00,,---,0.00,VWS V13.00,2013-03-28 01:59:00,
2013-03-27 20:04:00,44.1,24.7,29.99,ESE,122,3.0,8.0,46,0.00,,---,0.00,VWS V13.00,2013-03-28 02:04:00,
2013-03-27 20:09:00,43.7,24.3,30.00,ESE,122,4.0,5.0,46,0.00,,---,0.00,VWS V13.00,2013-03-28 02:09:00,
2013-03-27 20:14:00,43.1,24.8,30.00,ESE,122,6.0,7.0,48,0.00,,---,0.00,VWS V13.00,2013-03-28 02:14:00,
2013-03-27 20:19:00,42.4,24.6,30.00,ESE,123,4.0,7.0,49,0.00,,---,0.00,VWS V13.00,2013-03-28 02:19:00,
2013-03-27 20:24:00,41.9,24.1,30.01,ESE,123,6.0,7.0,49,0.00,,---,0.00,VWS V13.00,2013-03-28 02:24:00,
2013-03-27 20:29:00,41.4,24.2,30.01,ESE,123,5.0,7.0,50,0.00,,---,0.00,VWS V13.00,2013-03-28 02:29:00,
2013-03-27 20:34:00,40.7,24.0,30.01,SE,128,6.0,7.0,51,0.00,,---,0.00,VWS V13.00,2013-03-28 02:34:00,
2013-03-27 20:39:00,40.3,24.1,30.02,SE,129,7.0,9.0,52,0.00,,---,0.00,VWS V13.00,2013-03-28 02:39:00,
2013-03-27 20:44:00,40.0,23.8,30.02,SE,130,6.0,9.0,52,0.00,,---,0.00,VWS V13.00,2013-03-28 02:44:00,
2013-03-27 20:49:00,39.3,24.1,30.02,SE,130,5.0,9.0,54,0.00,,---,0.00,VWS V13.00,2013-03-28 02:49:00,
2013-03-27 20:54:00,39.1,23.9,30.00,SE,131,7.0,9.0,54,0.00,,---,0.00,VWS V13.00,2013-03-28 02:54:00,
2013-03-27 20:59:00,38.8,24.0,30.00,SE,129,7.0,9.0,55,0.00,,---,0.00,VWS V13.00,2013-03-28 02:59:00,
2013-03-27 21:04:00,38.5,24.2,30.00,SE,130,6.0,9.0,56,0.00,,---,0.00,VWS V13.00,2013-03-28 03:04:00,
2013-03-27 21:09:00,38.2,24.3,30.00,SE,129,8.0,8.0,57,0.00,,---,0.00,VWS V13.00,2013-03-28 03:09:00,
2013-03-27 21:14:00,38.5,24.2,30.00,SE,132,10.0,10.0,56,0.00,,---,0.00,VWS V13.00,2013-03-28 03:14:00,
2013-03-27 21:19:00,38.4,24.1,30.00,SE,134,9.0,12.0,56,0.00,,---,0.00,VWS V13.00,2013-03-28 03:19:00,
2013-03-27 21:24:00,38.2,23.9,30.00,SE,134,11.0,12.0,56,0.00,,---,0.00,VWS V13.00,2013-03-28 03:24:00,
2013-03-27 21:29:00,37.8,24.0,30.00,SE,134,10.0,12.0,57,0.00,,---,0.00,VWS V13.00,2013-03-28 03:29:00,
2013-03-27 21:34:00,37.1,24.1,30.00,SE,134,9.0,12.0,59,0.00,,---,0.00,VWS V13.00,2013-03-28 03:34:00,
2013-03-27 21:39:00,36.6,24.0,30.01,SE,131,6.0,10.0,60,0.00,,---,0.00,VWS V13.00,2013-03-28 03:39:00,
2013-03-27 21:44:00,36.3,24.1,30.01,SE,132,9.0,10.0,61,0.00,,---,0.00,VWS V13.00,2013-03-28 03:44:00,
2013-03-27 21:49:00,35.7,24.0,30.01,SE,134,9.0,10.0,62,0.00,,---,0.00,VWS V13.00,2013-03-28 03:49:00,
2013-03-27 21:54:00,35.7,24.0,29.98,SE,135,10.0,11.0,62,0.00,,---,0.00,VWS V13.00,2013-03-28 03:54:00,
2013-03-27 21:59:00,36.1,24.0,29.98,SE,134,9.0,11.0,61,0.00,,---,0.00,VWS V13.00,2013-03-28 03:59:00,
2013-03-27 22:00:00,36.1,24.0,29.98,SE,135,10.0,12.0,61,0.00,,---,0.00,VWS V13.00,2013-03-28 04:00:00,
2013-03-27 22:05:00,36.1,24.0,29.98,SE,132,7.0,12.0,61,0.00,,---,0.00,VWS V13.00,2013-03-28 04:05:00,
2013-03-27 22:10:00,35.9,24.2,29.97,SE,130,10.0,10.0,62,0.00,,---,0.00,VWS V13.00,2013-03-28 04:10:00,
2013-03-27 22:15:00,36.1,24.4,29.97,SE,125,9.0,11.0,62,0.00,,---,0.00,VWS V13.00,2013-03-28 04:15:00,
2013-03-27 22:20:00,35.7,24.4,29.97,SE,126,7.0,11.0,63,0.00,,---,0.00,VWS V13.00,2013-03-28 04:20:00,
2013-03-27 22:25:00,35.0,24.4,29.98,SE,129,8.0,11.0,65,0.00,,---,0.00,VWS V13.00,2013-03-28 04:25:00,
2013-03-27 22:30:00,34.9,24.0,29.98,SE,126,9.0,12.0,64,0.00,,---,0.00,VWS V13.00,2013-03-28 04:30:00,
2013-03-27 22:35:00,35.2,24.3,29.98,SE,133,10.0,13.0,64,0.00,,---,0.00,VWS V13.00,2013-03-28 04:35:00,
2013-03-27 22:40:00,35.3,24.4,29.99,SE,126,9.0,10.0,64,0.00,,---,0.00,VWS V13.00,2013-03-28 04:40:00,
2013-03-27 22:45:00,35.0,24.4,29.99,SE,127,6.0,10.0,65,0.00,,---,0.00,VWS V13.00,2013-03-28 04:45:00,
2013-03-27 22:50:00,34.8,24.2,29.99,SE,134,11.0,12.0,65,0.00,,---,0.00,VWS V13.00,2013-03-28 04:50:00,
2013-03-27 22:55:00,35.0,24.4,29.97,SE,134,7.0,12.0,65,0.00,,---,0.00,VWS V13.00,2013-03-28 04:55:00,
2013-03-27 23:00:00,34.9,24.3,29.97,SE,131,9.0,12.0,65,0.00,,---,0.00,VWS V13.00,2013-03-28 05:00:00,
2013-03-27 23:05:00,34.9,24.3,29.97,SE,130,9.0,12.0,65,0.00,,---,0.00,VWS V13.00,2013-03-28 05:05:00,
2013-03-27 23:10:00,35.3,24.7,29.97,SE,129,7.0,11.0,65,0.00,,---,0.00,VWS V13.00,2013-03-28 05:10:00,
2013-03-27 23:15:00,35.4,24.8,29.97,SE,126,6.0,12.0,65,0.00,,---,0.00,VWS V13.00,2013-03-28 05:15:00,
2013-03-27 23:20:00,35.2,24.6,29.97,SE,124,8.0,12.0,65,0.00,,---,0.00,VWS V13.00,2013-03-28 05:20:00,
2013-03-27 23:25:00,35.2,24.3,29.97,SE,126,9.0,12.0,64,0.00,,---,0.00,VWS V13.00,2013-03-28 05:25:00,
2013-03-27 23:30:00,35.6,24.6,29.97,SE,126,10.0,12.0,64,0.00,,---,0.00,VWS V13.00,2013-03-28 05:30:00,
2013-03-27 23:35:00,35.6,24.6,29.97,ESE,123,6.0,12.0,64,0.00,,---,0.00,VWS V13.00,2013-03-28 05:35:00,
2013-03-27 23:40:00,35.6,24.6,29.97,SE,125,8.0,9.0,64,0.00,,---,0.00,VWS V13.00,2013-03-28 05:40:00,
2013-03-27 23:45:00,35.5,24.5,29.97,ESE,122,7.0,10.0,64,0.00,,---,0.00,VWS V13.00,2013-03-28 05:45:00,
2013-03-27 23:50:00,35.5,24.5,29.97,ESE,122,6.0,10.0,64,0.00,,---,0.00,VWS V13.00,2013-03-28 05:50:00,
2013-03-27 23:55:00,35.5,24.5,29.96,ESE,122,6.0,11.0,64,0.00,,---,0.00,VWS V13.00,2013-03-28 05:55:00,